Clearwater Lake Weather Center

Moon Phase Calendar



Clearwater Lake Water Level
Online Cameras

 


      

Current Conditions in Piedmont
8/4/2021 7:43:28 AM

61°F
Feels Like 61
Clear
Humidity
73%
Pressure
30.12"
Wind
3.4 mph (NNE)
Dew Point
53°F
UV Index
1/10 (Low)
Visibility
6 mi

Hourly Forecast

Date & Time Wed, Aug 4
7:00 AM
Wed, Aug 4
8:00 AM
Wed, Aug 4
9:00 AM
Wed, Aug 4
10:00 AM
Wed, Aug 4
11:00 AM
Wed, Aug 4
12:00 PM
Wed, Aug 4
1:00 PM
Wed, Aug 4
2:00 PM
Wed, Aug 4
3:00 PM
Wed, Aug 4
4:00 PM
Wed, Aug 4
5:00 PM
Wed, Aug 4
6:00 PM
Wed, Aug 4
7:00 PM
Wed, Aug 4
8:00 PM
Wed, Aug 4
9:00 PM
Wed, Aug 4
10:00 PM
Wed, Aug 4
11:00 PM
Thu, Aug 5
12:00 AM
Thu, Aug 5
1:00 AM
Thu, Aug 5
2:00 AM
Thu, Aug 5
3:00 AM
Thu, Aug 5
4:00 AM
Thu, Aug 5
5:00 AM
Thu, Aug 5
6:00 AM
Thu, Aug 5
7:00 AM
Thu, Aug 5
8:00 AM
Thu, Aug 5
9:00 AM
Thu, Aug 5
10:00 AM
Thu, Aug 5
11:00 AM
Thu, Aug 5
12:00 PM
Thu, Aug 5
1:00 PM
Thu, Aug 5
2:00 PM
Thu, Aug 5
3:00 PM
Thu, Aug 5
4:00 PM
Thu, Aug 5
5:00 PM
Thu, Aug 5
6:00 PM
Thu, Aug 5
7:00 PM
Thu, Aug 5
8:00 PM
Thu, Aug 5
9:00 PM
Thu, Aug 5
10:00 PM
Thu, Aug 5
11:00 PM
Fri, Aug 6
12:00 AM
Fri, Aug 6
1:00 AM
Fri, Aug 6
2:00 AM
Fri, Aug 6
3:00 AM
Fri, Aug 6
4:00 AM
Fri, Aug 6
5:00 AM
Fri, Aug 6
6:00 AM
Condition
Clear

Clear

Clear

Clear

Clear

Clear

Clear

Clouds

Clouds

Clouds

Clouds

Clouds

Clouds

Clear

Clear

Clear

Clear

Clear

Clear

Clear

Clear

Clear

Clear

Clear

Clear

Clouds

Clouds

Clouds

Clouds

Clouds

Clouds

Clouds

Clouds

Clouds

Clouds

Clouds

Clouds

Clear

Clouds

Clouds

Clouds

Clouds

Clouds

Clouds

Clouds

Clouds

Clouds

Clouds
Temperature 61°F61°F63°F67°F72°F77°F83°F84°F85°F85°F84°F81°F76°F69°F66°F64°F63°F63°F62°F61°F60°F60°F59°F59°F61°F66°F72°F76°F80°F83°F85°F86°F86°F86°F85°F83°F77°F71°F68°F67°F66°F65°F65°F64°F63°F63°F63°F62°F
Feels Like 61°F61°F63°F66°F71°F77°F82°F83°F83°F83°F82°F81°F76°F69°F66°F64°F63°F62°F61°F61°F60°F59°F59°F58°F60°F66°F71°F75°F80°F82°F84°F85°F84°F84°F84°F83°F78°F72°F68°F67°F66°F65°F65°F64°F63°F63°F63°F62°F
Cloudiness 0%0%0%0%0%0%0%39%61%72%74%69%66%6%5%6%7%8%8%9%5%4%3%3%5%11%24%48%47%44%53%100%100%100%100%90%88%8%22%48%61%69%74%81%91%94%95%96%
Visibility 6 mi6 mi6 mi6 mi6 mi6 mi6 mi6 mi6 mi6 mi6 mi6 mi6 mi6 mi6 mi6 mi6 mi6 mi6 mi6 mi6 mi6 mi6 mi6 mi6 mi6 mi6 mi6 mi6 mi6 mi6 mi6 mi6 mi6 mi6 mi6 mi6 mi6 mi6 mi6 mi6 mi6 mi6 mi6 mi6 mi6 mi6 mi6 mi
Precipitation 0%0%0%0%0%0%0%0%0%0%0%0%0%0%0%0%0%0%0%0%0%0%0%0%0%0%0%0%0%0%0%0%0%0%0%0%0%0%0%0%0%0%0%0%0%0%0%0%
Humidity 76%73%70%64%55%45%36%34%33%34%36%44%57%73%78%80%82%83%85%86%87%87%87%87%84%71%60%53%46%41%39%37%36%36%37%45%62%76%81%81%81%82%81%85%85%85%85%86%
Dew Point 54°F53°F53°F54°F55°F54°F53°F53°F53°F53°F53°F57°F60°F60°F59°F58°F57°F57°F57°F56°F56°F56°F55°F55°F56°F57°F57°F57°F57°F57°F57°F56°F56°F56°F56°F60°F63°F63°F62°F61°F60°F59°F59°F59°F59°F58°F58°F58°F
Pressure 30.12"30.12"30.12"30.12"30.12"30.09"30.09"30.06"30.06"30.03"30.03"30.03"30.03"30.06"30.09"30.09"30.12"30.12"30.12"30.09"30.09"30.09"30.09"30.09"30.12"30.12"30.12"30.12"30.12"30.09"30.09"30.06"30.03"30.03"30.03"30.03"30.03"30.03"30.06"30.06"30.06"30.06"30.06"30.06"30.06"30.06"30.06"30.06"
Wind Speed 3.6 mph3.4 mph4.1 mph4.7 mph4.8 mph4.9 mph4.5 mph4.4 mph4.8 mph5.3 mph6.2 mph6.2 mph5.4 mph3.6 mph2.6 mph1.2 mph1.9 mph2.6 mph2.3 mph2.4 mph2 mph1.1 mph1.7 mph1.1 mph1.2 mph1.2 mph2 mph3 mph3.2 mph3.1 mph3 mph3.1 mph3.2 mph2.9 mph3.1 mph4.6 mph6.5 mph5.6 mph4.2 mph3.6 mph3.3 mph3.5 mph2.5 mph1.8 mph1.5 mph1.8 mph2.3 mph2.6 mph
Wind
Direction

N
26°
NNE
35°
NE
48°
NE
54°
NE
63°
ENE
68°
ENE
71°
ENE
72°
ENE
79°
E
86°
E
94°
E
106°
ESE
118°
ESE
115°
ESE
86°
E
35°
NE
37°
NE
44°
NE
46°
NE
45°
NE
32°
NNE
44°
NE
42°
NE
48°
NE
82°
E
147°
SSE
176°
S
181°
S
189°
S
185°
S
178°
S
176°
S
166°
SSE
161°
SSE
144°
SE
149°
SSE
155°
SSE
149°
SSE
149°
SSE
155°
SSE
189°
S
239°
WSW
219°
SW
218°
SW
174°
S
182°
S
177°
S

Daily Forecast

Date High Low Precip. Humidity
Today
Aug 4

Clear
85 °F
60 °F
0%
36%
Thursday
Aug 5

Clouds
86 °F
59 °F
0%
39%
Friday
Aug 6

Clouds
87 °F
63 °F
0%
39%
Saturday
Aug 7

Clear
92 °F
65 °F
0%
37%
Sunday
Aug 8

Rain
94 °F
69 °F
42%
41%
Monday
Aug 9

Rain
99 °F
72 °F
37%
35%
Tuesday
Aug 10

Rain
100 °F
73 °F
25%
35%
Wednesday
Aug 11

Clouds
100 °F
74 °F
11%
35%
Thursday
Aug 12

Rain
94 °F
70 °F
62%
36%
Friday
Aug 13

Rain
93 °F
68 °F
88%
48%
Saturday
Aug 14

Clouds
96 °F
69 °F
21%
39%
Sunday
Aug 15

Rain
94 °F
68 °F
100%
42%
Monday
Aug 16

Rain
68 °F
62 °F
100%
98%
Tuesday
Aug 17

Clouds
77 °F
59 °F
26%
49%
Wednesday
Aug 18

Clear
78 °F
54 °F
0%
38%
Thursday
Aug 19

Clear
81 °F
53 °F
0%
34%

Temperature 8-14 Day Outlook



Precipitation 8-14 Day Outlook




Quick Links
Clearwater Lake News
Clearwater Lake Photos
Clearwater Lake Videos




About Us
Contact Us
Site Map
Search Site
Advertise With Us
   
Clearwater.LakesOnline.com
THE CLEARWATER LAKE WEBSITE

Copyright 2021, Lakes Online
Privacy    |    Legal